Location: ???????
(55.3754°N, 39.3545°E)
Time: 05:38:42
(UTC+00:00)

Cosmos 1536 - Pass Details

Date: 14 April 2026
Orbit: 481 x 503 km, 82.5° (Epoch: 10 May)

Event Time Altitude Azimuth Distance (km) Brightness Sun altitude
Rises 23:32:45 0° 350° (N) 2,573 6.9 -19.5°
Reaches altitude 10° 23:34:54 10° 353° (N) 1,684 6.0 -19.3°
Maximum altitude 23:38:33 63° 75° (ENE) 547 2.9 -19.0°
Enters shadow 23:40:16 28° 149° (SSE) 926 3.7 -18.9°
